Simultaneous Nadir Overpasses (SNOs) Predictions

Prediction of SNOs between LANDSAT-8 and NOAA-19 Satellite Orbit:

Table of predicted SNOs for the next 14.0 days since TLE Epoch: 5/1/2015
Index Date (LANDSAT-8) Time (LANDSAT-8) Lat,Lon (LANDSAT-8) SZA (LANDSAT-8 ) Date (NOAA-19) Time (NOAA-19) Lat,Lon (NOAA-19) SZA (NOAA-19 ) Distance(km) Time Diff (sec)
1 05/01/2015 21:46:37 73.16,-145.61 57.89 05/01/2015 21:45:56 73.13,-145.56 57.86 3.01 41
2 05/01/2015 22:36:06 -73.08, 21.87 122.21 05/01/2015 22:36:59 -73.08, 21.81 122.21 2.18 53
3 05/04/2015 02:30:41 73.73, 144.51 57.82 05/04/2015 02:29:33 73.76, 142.14 57.84 74.02 68
4 05/04/2015 03:20:20 -73.13, -49.10 122.81 05/04/2015 03:20:24 -73.13, -49.14 122.80 1.32 4
5 05/06/2015 08:04:34 -73.17,-120.10 123.40 05/06/2015 08:03:49 -73.20,-120.10 123.37 3.78 45
6 05/06/2015 08:54:01 73.08, 47.37 56.50 05/06/2015 08:54:46 73.08, 47.42 56.51 1.66 45
7 05/08/2015 12:48:34 -73.92, 170.42 123.23 05/08/2015 12:47:28 -73.95, 167.26 123.22 97.27 66
8 05/08/2015 13:38:14 73.15, -23.56 55.97 05/08/2015 13:38:11 73.13, -23.51 55.96 2.49 3
9 05/08/2015 14:27:54 -72.50, 142.82 124.71 05/08/2015 14:29:01 -72.49, 145.13 124.68 77.17 67
10 05/10/2015 18:22:27 73.20, -94.51 55.44 05/10/2015 18:21:36 73.18, -94.44 55.42 3.11 51
11 05/10/2015 19:11:56 -73.14, 72.99 124.64 05/10/2015 19:12:37 -73.12, 72.95 124.66 2.54 41
12 05/12/2015 23:56:09 -73.18, 2.01 125.16 05/12/2015 23:56:02 -73.20, 1.95 125.13 2.85 7
13 05/13/2015 00:45:43 72.71, 168.74 54.36 05/13/2015 00:46:52 72.66, 170.39 54.34 54.94 69
14 05/15/2015 04:40:21 -73.26, -68.89 125.61 05/15/2015 04:39:26 -73.24, -68.95 125.63 2.89 55
15 05/15/2015 05:29:48 73.16, 98.56 54.29 05/15/2015 05:30:26 73.17, 98.45 54.30 3.43 38




NCC Satellite Simultaneous Nadir Overpasses (SNOs) Prediction Service
